Overview Statistics Trail Chart Weather Telemetry Raw packets
 

This is the latest recevied weather packets stored in our database for station/object W0WC. If no packets are shown the sender has not sent any weather packets the latest 10 day(s).

<< 19 20 21 22 23 24 25 >>
Time Temp. Humidity Pressure Rain* Wind** Luminosity Snow
1788558678 37.78° C 34% 1013.3 hPa 0 mm - 381 W/m² -
1788558378 38.33° C 34% 1013.4 hPa 0 mm - 395 W/m² -
1788558074 37.78° C 34% 1013.4 hPa 0 mm - 406 W/m² -
1788557771 37.78° C 35% 1013.7 hPa 0 mm - 418 W/m² -
1788557468 38.33° C 34% 1013.7 hPa 0 mm - 430 W/m² -
1788557167 38.33° C 34% 1013.5 hPa 0 mm - 436 W/m² -
1788556863 37.78° C 34% 1013.3 hPa 0 mm - 449 W/m² -
1788556562 37.78° C 35% 1013.6 hPa 0 mm - 463 W/m² -
1788556258 37.78° C 35% 1013.6 hPa 0 mm - 485 W/m² -
1788555957 37.78° C 35% 1013.7 hPa 0 mm - 504 W/m² -
1788555653 37.78° C 36% 1013.6 hPa 0 mm - 510 W/m² -
1788555348 38.33° C 35% 1014 hPa 0 mm - 525 W/m² -
1788555045 38.33° C 35% 1013.8 hPa 0 mm - 527 W/m² -
1788554741 38.33° C 35% 1014 hPa 0 mm - 537 W/m² -
1788554436 38.33° C 33% 1014 hPa 0 mm - 557 W/m² -
1788554132 38.33° C 34% 1014 hPa 0 mm - 567 W/m² -
1788553829 38.33° C 35% 1013.9 hPa 0 mm - 580 W/m² -
1788553524 38.33° C 35% 1014.1 hPa 0 mm - 579 W/m² -
1788553220 37.78° C 35% 1014.1 hPa 0 mm - 607 W/m² -
1788552915 37.22° C 36% 1014.1 hPa 0 mm - 613 W/m² -
1788552611 37.78° C 36% 1014.4 hPa 0 mm - 616 W/m² -
1788552309 38.33° C 34% 1014.5 hPa 0 mm - 627 W/m² -
1788552004 37.22° C 37% 1014.5 hPa 0 mm - 634 W/m² -
1788551702 37.22° C 37% 1014.5 hPa 0 mm - 639 W/m² -
1788551401 37.22° C 36% 1014.6 hPa 0 mm - 651 W/m² -

* Rain latest hour (hover to see other rain measurements)
** Current wind speed in m/s (hover to see current wind gust speed)